Weather History for PHHI - March, 2014

Change the Weather History Date:

Monday, March 24, 2014

  Actual Average Record
Temperature  
Mean Temperature 69 °F -  
Max Temperature 77 °F 74 °F - (-1)
Min Temperature 61 °F 61 °F - (-1)
Cooling Degree Days 4    
Growing Degree Days 19 (Base 50)    
Moisture  
Dew Point 60 °F    
Average Humidity 72    
Maximum Humidity 89    
Minimum Humidity 57    
Precipitation  
Precipitation 0.00 in - - ()
Sea Level Pressure  
Sea Level Pressure 30.13 in    
Wind  
Wind Speed 8 mph (North)    
Max Wind Speed 18 mph    
Max Gust Speed 23 mph    
Visibility 10 miles    
Events      
Averages and records for this station are not official NWS values.
T = Trace of Precipitation, MM = Missing Value Source: NWS Daily Summary

Daily Weather History Graph

Daily Weather History Graph

Search for Another Location

Airport or City:

Trip Planner

Search our weather history database for the weather conditions in past years. The results will help you decide how hot, cold, wet, or windy it might be!

Date:

Astronomy

Mar. 24, 2014 Rise Set
Actual Time 6:32 AM HST 6:44 PM HST
Civil Twilight 6:10 AM HST 7:06 PM HST
Nautical Twilight 5:44 AM HST 7:32 PM HST
Astronomical Twilight 5:18 AM HST 7:58 PM HST
Moon 1:33 AM HST (3/24) 1:00 PM HST (3/24)
Length of Visible Light 12h 56m
Length of Day
12h 12m
Last Quarter, 40% of the Moon is Illuminated
Mar 24
Last Quarter
Mar 30
New
Apr 6
First Quarter
Apr 14
Full
Apr 21
Last Quarter

Hourly Weather History & Observations

Time (HST) Temp. Dew Point Humidity Pressure Visibility Wind Dir Wind Speed Gust Speed Precip Events Conditions
12:58 AM 62.4 °F 58.5 °F 87% 30.12 in 10.0 mi NW 4.6 mph - N/A   Clear
2:58 AM 62.2 °F 58.3 °F 87% 30.09 in 10.0 mi WNW 5.8 mph - N/A   Clear
3:58 AM 61.3 °F 57.7 °F 88% 30.09 in 10.0 mi WNW 6.9 mph - N/A   Clear
4:58 AM 62.8 °F 58.8 °F 87% 30.09 in 10.0 mi NW 5.8 mph - N/A   Partly Cloudy
5:58 AM 61.5 °F 58.3 °F 89% 30.12 in 10.0 mi WNW 5.8 mph - N/A   Clear
6:58 AM 63.1 °F 59.0 °F 86% 30.14 in 10.0 mi WNW 3.5 mph - N/A   Clear
7:58 AM 67.6 °F 61.0 °F 79% 30.14 in 10.0 mi NW 4.6 mph - N/A   Partly Cloudy
8:58 AM 72.0 °F 61.0 °F 68% 30.16 in 10.0 mi NNE 6.9 mph - N/A   Partly Cloudy
9:58 AM 73.6 °F 60.6 °F 64% 30.17 in 10.0 mi East 8.1 mph - N/A   Clear
10:58 AM 76.1 °F 61.0 °F 59% 30.16 in 10.0 mi NE 16.1 mph - 0.00 in   Clear
11:58 AM 76.1 °F 60.6 °F 59% 30.15 in 10.0 mi ENE 18.4 mph 23.0 mph N/A   Clear
12:58 PM 77.5 °F 61.3 °F 57% 30.13 in 10.0 mi East 15.0 mph 20.7 mph N/A   Partly Cloudy
1:58 PM 75.0 °F 59.5 °F 58% 30.11 in 10.0 mi ENE 17.3 mph 23.0 mph N/A   Overcast
2:30 PM 75.2 °F 59.0 °F 57% 30.11 in 10.0 mi ENE 18.4 mph 20.7 mph N/A   Smoke
2:58 PM 75.6 °F 60.1 °F 59% 30.11 in 7.0 mi ENE 12.7 mph 21.9 mph N/A   Smoke
3:58 PM 74.8 °F 59.7 °F 59% 30.08 in 7.0 mi NE 13.8 mph - N/A   Smoke
4:58 PM 73.4 °F 60.8 °F 65% 30.09 in 7.0 mi NE 12.7 mph 18.4 mph N/A   Smoke
5:23 PM 73.4 °F 60.8 °F 65% 30.10 in 7.0 mi North 11.5 mph 21.9 mph N/A   Smoke
5:58 PM 71.8 °F 61.0 °F 69% 30.10 in 10.0 mi ENE 16.1 mph - N/A   Clear
6:58 PM 70.2 °F 60.1 °F 70% 30.12 in 10.0 mi NE 15.0 mph - N/A   Partly Cloudy
7:58 PM 69.4 °F 59.4 °F 70% 30.14 in 9.0 mi North 6.9 mph - N/A   Partly Cloudy
8:58 PM 68.4 °F 58.1 °F 70% 30.16 in 10.0 mi North 4.6 mph - N/A   Mostly Cloudy
9:58 PM 67.5 °F 58.5 °F 73% 30.18 in 10.0 mi NW 3.5 mph - N/A   Scattered Clouds
10:58 PM 64.0 °F 58.5 °F 82% 30.17 in 10.0 mi NW 5.8 mph - N/A   Partly Cloudy
11:58 PM 63.3 °F 58.3 °F 84% 30.17 in 10.0 mi WNW 5.8 mph - N/A   Clear